Regional Weather Roundup
Issued by NWS

Home | Current Version | Previous Version | Text Only | Print | Product List | Glossary Off
Versions: 1 2 3 4 5 6 7 8 9 10 11 12 13 14 15 16 17 18 19 20 21 22 23 24 25 26 27 28 29 30 31 32 33 34 35 36 37 38 39 40 41 42 43 44 45 46 47 48 49 50

000
ASUS43 KDTX 012001
RWRMI
MICHIGAN HOURLY REGIONAL WEATHER ROUNDUP
NATIONAL WEATHER SERVICE DETROIT/PONTIAC MI
400 PM EDT FRI AUG 01 2014

NOTE: "FAIR" INDICATES FEW OR NO CLOUDS BELOW 12,000 FEET WITH NO
SIGNIFICANT WEATHER AND/OR OBSTRUCTION TO VISIBILITY.

MIZ047>049-052>055-059>063-066>070-074>076-081>083-012100-
SOUTHEAST LOWER MICHIGAN

CITY           SKY/WX    TMP DP  RH WIND       PRES   REMARKS
ADRIAN         PTSUNNY   76  64  66 SE8       30.10S
ALMA           MOSUNNY   78  58  49 CALM      30.07S
ANN ARBOR      PTSUNNY   81  58  45 S7        30.09R
BAD AXE        MOSUNNY   77  62  60 W6        30.08F
CARO           MOSUNNY   82  58  45 CALM      30.07F
DETROIT CITY   PTSUNNY   79  61  53 SE9       30.08S
DETROIT        PTSUNNY   77  63  61 SW7       30.09S
FLINT          MOSUNNY   79  61  53 W6        30.07F
GROSSE ILE     LGT RAIN  72  57  60 NW3G10    30.09R
HILLSDALE      PTSUNNY   80  59  47 SW5       30.11S
HOWELL         MOSUNNY   80  58  46 W8        30.09R

CITY           SKY/WX    TMP DP  RH WIND       PRES   REMARKS
LAMBERTVILLE   MOSUNNY   79  55  44 NW6       30.09F
LANSING        MOSUNNY   78  62  57 SE16      30.08R
LAPEER         FAIR      77  62  59 CALM      30.08S
MASON          MOSUNNY   73  63  68 E5        30.09F
MT. CLEMENS    LGT RAIN  73  59  62 SE12      30.06F
PONTIAC        PTSUNNY   80  55  42 VRB3      30.08S
PORT HOPE        N/A     71  64  78 E7        30.07F
TRI CITIES     SUNNY     81  60  48 SW7       30.07S
TROY           CLOUDY    80  58  45 S10       30.09R
SAGINAW HB     MOSUNNY   81  61  50 S3        30.06S
$$
MIZ043>046-050>051-056>058-064>065-071>073-077>080-012100-
SOUTHWEST LOWER MICHIGAN

CITY           SKY/WX    TMP DP  RH WIND       PRES   REMARKS
BATTLE CREEK   PTSUNNY   78  59  51 W10       30.09S
BENTON HARBOR  MOSUNNY   75  58  55 CALM      30.10R
BIG RAPIDS     LGT RAIN  68  60  74 CALM      30.07F
COLDWATER      PTSUNNY   77  61  58 W5        30.10S
FREMONT        FAIR      81  54  39 SW6       30.06S
HOLLAND        SUNNY     81  61  50 W9        30.09S HAZE
GRAND RAPIDS   MOSUNNY   84  57  39 W5        30.07S
IONIA          FAIR      83  57  40 W6        30.06S
KALAMAZOO      PTSUNNY   78  58  49 SW9       30.09S
LUDINGTON      SUNNY     74  64  69 SW8       30.07S
MARSHALL       PTSUNNY   80  58  46 S8        30.08S
MOUNT PLEASANT MOSUNNY   81  55  40 CALM      30.06S
MUSKEGON       SUNNY     78  59  51 S8        30.08S
SOUTH HAVEN    MOSUNNY   75  62  64 W3        30.09S
$$
MIZ016>042-012100-
NORTHERN LOWER MICHIGAN

CITY           SKY/WX    TMP DP  RH WIND       PRES   REMARKS
ALPENA         MOSUNNY   75  59  57 E9        30.07F
BEAVER ISLAND  MOSUNNY   75  55  49 W3        30.08S
BELLAIRE       SUNNY     80  49  32 NE5       30.05F
CADILLAC       PTSUNNY   80  55  41 SW3       30.07S
CHARLEVOIX     MOSUNNY   73  56  54 N7        30.10S
FRANKFORT      SUNNY     76  58  53 W5        30.05F
GAYLORD        PTSUNNY   77  49  37 VRB5      30.08F
GRAYLING       MOSUNNY   80  49  33 W6        30.08F
HARBOR SPRINGS MOSUNNY   73  60  65 S6        30.07S
HOUGHTON LAKE  SUNNY     79  51  37 SW3       30.08F
MANISTEE       SUNNY     77  61  57 W7        30.06F
OSCODA         MOSUNNY   73  60  64 SE8       30.08S
PELLSTON       MOSUNNY   80  48  32 W8        30.07S
ROGERS CITY    SUNNY     67  61  79 NE3       30.09F
TRAVERSE CITY  MOSUNNY   80  49  33 NE9       30.04S
$$
MIZ007>008-015-012100-
EASTERN UPPER MICHIGAN

CITY           SKY/WX    TMP DP  RH WIND       PRES   REMARKS
KINROSS        MOSUNNY   73  54  49 NW9       30.07S
MACKINAC ISLAN SUNNY     73  48  41 W6        30.07S
NEWBERRY       PTSUNNY   73  55  53 NW12      30.07S
S. S. MARIE    SUNNY     73  50  44 W10       30.07S
$$
MIZ004>006-011>014-085-012100-
CENTRAL UPPER MICHIGAN

CITY           SKY/WX    TMP DP  RH WIND       PRES   REMARKS
MANISTIQUE     MOSUNNY   73  57  56 S7        30.06F
ESCANABA       SUNNY     75  52  43 SE12      30.05S
MENOMINEE      MOSUNNY   77  61  57 SE5       30.03S
$$
MIZ001>003-009>011-084-012100-
WESTERN UPPER MICHIGAN

CITY           SKY/WX    TMP DP  RH WIND       PRES   REMARKS
IRON MOUNTAIN  SUNNY     79  48  33 W5        30.05S
HOUGHTON       SUNNY     68  53  58 E8        30.09S
COPPER HARBOR    N/A     66  53  63 E7        30.08F
$$

ABBREVIATIONS USED IN REMARKS
   TC - TEMPERATURE IN CELSIUS
  WCI - WIND CHILL INDEX
   HX - HEAT INDEX
  VSB - VISIBILITY



USA.gov is the U.S. government's official web portal to all federal, state and local government web resources and services.